QPF
0.01 0.01 0.01 0.00 0.00 0.00 0.00 0.00 0.00 0.00 0.00 0.00 0.00 0.00 0.00 0.00 0.00 0.00 0.00 0.00 0.00 0.00 0.00 0.00 0.00 0.00 0.00 0.00 0.00 0.00 0.00 0.00 0.00 0.00 0.00 0.01 0.01 0.02 0.03 0.03 0.03 0.04 0.04 0.02
0.00 0.00 0.00 0.00 0.00 0.00 0.00 0.00 0.00 0.00 0.00 0.00 0.00 0.00 0.00 0.00 0.00 0.00 0.00 0.00 0.00 0.00 0.00 0.00 0.00 0.00 0.00 0.00 0.00 0.00 0.00 0.00 0.00 0.00 0.00 0.00 0.01 0.02 0.03 0.04 0.04 0.06 0.07 0.05
0.00 0.00 0.00 0.00 0.00 0.00 0.00 0.00 0.00 0.00 0.00 0.00 0.00 0.00 0.00 0.00 0.00 0.00 0.00 0.00 0.00 0.00 0.00 0.00 0.00 0.00 0.00 0.00 0.00 0.00 0.00 0.00 0.00 0.00 0.00 0.00 0.00 0.01 0.02 0.03 0.04 0.07 0.08 0.07
0.00 0.00 0.00 0.00 0.00 0.00 0.00 0.00 0.00 0.00 0.00 0.00 0.00 0.00 0.00 0.00 0.00 0.00 0.00 0.00 0.00 0.00 0.00 0.00 0.00 0.00 0.00 0.00 0.00 0.00 0.00 0.00 0.00 0.00 0.00 0.00 0.00 0.00 0.01 0.03 0.05 0.06 0.07 0.07
0.00 0.00 0.00 0.00 0.00 0.00 0.00 0.00 0.00 0.00 0.00 0.00 0.00 0.00 0.00 0.00 0.00 0.00 0.00 0.00 0.00 0.00 0.00 0.00 0.00 0.00 0.00 0.00 0.00 0.00 0.00 0.00 0.00 0.00 0.00 0.00 0.00 0.00 0.01 0.03 0.04 0.04 0.05 0.05
0.00 0.00 0.00 0.00 0.00 0.00 0.00 0.00 0.00 0.00 0.01 0.00 0.00 0.00 0.00 0.00 0.00 0.00 0.00 0.00 0.00 0.00 0.00 0.00 0.00 0.00 0.00 0.00 0.00 0.00 0.00 0.00 0.00 0.00 0.00 0.00 0.00 0.00 0.01 0.02 0.02 0.03 0.04 0.03
0.00 0.00 0.00 0.00 0.00 0.00 0.00 0.01 0.00 0.00 0.01 0.00 0.00 0.00 0.00 0.00 0.00 0.00 0.00 0.00 0.00 0.00 0.00 0.00 0.00 0.00 0.00 0.00 0.00 0.00 0.00 0.00 0.01 0.00 0.00 0.00 0.00 0.01 0.03 0.03 0.03 0.04 0.04 0.03
0.00 0.00 0.00 0.00 0.00 0.00 0.00 0.00 0.00 0.00 0.00 0.00 0.00 0.00 0.00 0.00 0.00 0.00 0.00 0.00 0.00 0.00 0.00 0.00 0.00 0.00 0.00 0.00 0.00 0.00 0.00 0.00 0.01 0.00 0.00 0.00 0.00 0.01 0.02 0.03 0.04 0.04 0.04 0.04
0.00 0.00 0.00 0.00 0.00 0.00 0.01 0.01 0.00 0.01 0.00 0.00 0.00 0.00 0.00 0.00 0.00 0.00 0.00 0.00 0.00 0.00 0.00 0.00 0.00 0.00 0.00 0.00 0.00 0.00 0.00 0.00 0.01 0.00 0.00 0.00 0.00 0.00 0.01 0.02 0.03 0.03 0.03 0.03
0.00 0.00 0.00 0.00 0.00 0.00 0.00 0.00 0.01 0.02 0.01 0.00 0.00 0.00 0.00 0.00 0.00 0.00 0.00 0.00 0.00 0.00 0.00 0.00 0.00 0.00 0.00 0.00 0.00 0.00 0.00 0.00 0.01 0.01 0.00 0.00 0.00 0.00 0.01 0.01 0.02 0.02 0.02 0.02
0.00 0.00 0.00 0.00 0.00 0.00 0.00 0.00 0.01 0.02 0.02 0.01 0.00 0.00 0.00 0.00 0.00 0.00 0.00 0.00 0.00 0.00 0.00 0.00 0.00 0.00 0.00 0.00 0.00 0.00 0.01 0.01 0.01 0.00 0.00 0.00 0.00 0.00 0.00 0.01 0.01 0.01 0.01 0.01
0.00 0.00 0.00 0.00 0.00 0.00 0.00 0.00 0.01 0.03 0.02 0.01 0.02 0.00 0.00 0.00 0.00 0.00 0.00 0.00 0.00 0.00 0.00 0.00 0.00 0.00 0.00 0.00 0.01 0.01 0.01 0.01 0.01 0.00 0.00 0.00 0.00 0.00 0.01 0.01 0.01 0.01 0.01 0.00
0.00 0.00 0.00 0.00 0.00 0.00 0.00 0.00 0.01 0.04 0.09 0.05 0.04 0.01 0.00 0.00 0.00 0.01 0.01 0.01 0.01 0.01 0.01 0.00 0.00 0.00 0.01 0.01 0.02 0.02 0.01 0.00 0.00 0.00 0.00 0.00 0.00 0.00 0.01 0.01 0.01 0.01 0.00 0.00
0.00 0.00 0.00 0.00 0.00 0.00 0.00 0.00 0.01 0.10 0.14 0.05 0.01 0.00 0.00 0.01 0.02 0.03 0.03 0.04 0.03 0.02 0.01 0.01 0.01 0.02 0.02 0.02 0.02 0.01 0.00 0.00 0.00 0.00 0.00 0.01 0.01 0.01 0.01 0.01 0.01 0.00 0.00 0.00
0.01 0.01 0.00 0.00 0.00 0.00 0.00 0.00 0.02 0.10 0.12 0.12 0.04 0.02 0.02 0.03 0.05 0.04 0.04 0.04 0.03 0.02 0.02 0.02 0.02 0.02 0.02 0.01 0.01 0.00 0.00 0.00 0.01 0.01 0.01 0.01 0.01 0.01 0.01 0.01 0.00 0.00 0.00 0.00
0.01 0.01 0.01 0.00 0.00 0.00 0.00 0.01 0.02 0.04 0.07 0.09 0.08 0.07 0.04 0.05 0.05 0.05 0.05 0.03 0.02 0.02 0.02 0.02 0.02 0.01 0.01 0.00 0.00 0.00 0.01 0.01 0.01 0.01 0.02 0.02 0.02 0.02 0.01 0.01 0.00 0.00 0.00 0.00
0.01 0.01 0.01 0.01 0.00 0.00 0.01 0.02 0.04 0.05 0.05 0.07 0.09 0.07 0.06 0.06 0.05 0.04 0.04 0.03 0.02 0.01 0.01 0.01 0.01 0.00 0.00 0.00 0.00 0.01 0.01 0.02 0.02 0.03 0.03 0.03 0.03 0.02 0.01 0.01 0.00 0.00 0.00 0.00
0.00 0.01 0.03 0.01 0.01 0.01 0.02 0.02 0.03 0.04 0.04 0.05 0.06 0.05 0.05 0.06 0.06 0.05 0.05 0.04 0.02 0.01 0.01 0.00 0.00 0.00 0.00 0.01 0.01 0.01 0.02 0.03 0.04 0.03 0.03 0.02 0.02 0.01 0.01 0.01 0.01 0.01 0.01 0.01
0.00 0.02 0.04 0.03 0.02 0.01 0.01 0.01 0.01 0.03 0.03 0.04 0.05 0.05 0.05 0.07 0.09 0.09 0.08 0.07 0.05 0.03 0.02 0.01 0.00 0.00 0.01 0.01 0.02 0.02 0.03 0.04 0.04 0.03 0.03 0.03 0.02 0.02 0.02 0.02 0.02 0.01 0.01 0.00
0.01 0.02 0.05 0.04 0.04 0.02 0.01 0.00 0.00 0.01 0.02 0.02 0.04 0.06 0.07 0.07 0.07 0.08 0.07 0.06 0.06 0.05 0.04 0.03 0.02 0.02 0.02 0.02 0.03 0.04 0.06 0.06 0.06 0.05 0.05 0.04 0.04 0.04 0.03 0.02 0.01 0.00 0.00 0.00
0.01 0.02 0.03 0.03 0.03 0.01 0.00 0.00 0.00 0.01 0.01 0.00 0.01 0.04 0.06 0.06 0.06 0.06 0.05 0.05 0.05 0.06 0.05 0.05 0.05 0.06 0.07 0.08 0.09 0.10 0.11 0.11 0.10 0.08 0.06 0.05 0.04 0.02 0.01 0.00 0.00 0.00 0.00 0.00
0.00 0.01 0.01 0.01 0.02 0.01 0.00 0.00 0.00 0.01 0.00 0.00 0.00 0.02 0.04 0.05 0.06 0.06 0.04 0.03 0.03 0.03 0.04 0.05 0.06 0.07 0.09 0.10 0.11 0.11 0.10 0.09 0.07 0.05 0.03 0.02 0.01 0.00 0.00 0.00 0.00 0.00 0.00 0.00
0.00 0.01 0.01 0.01 0.00 0.00 0.00 0.00 0.00 0.00 0.00 0.00 0.00 0.01 0.02 0.04 0.04 0.04 0.04 0.03 0.01 0.01 0.01 0.02 0.03 0.03 0.03 0.04 0.05 0.04 0.03 0.02 0.01 0.01 0.00 0.00 0.00 0.00 0.00 0.00 0.00 0.00 0.00 0.00
0.01 0.00 0.00 0.00 0.00 0.00 0.00 0.00 0.00 0.00 0.00 0.00 0.00 0.01 0.01 0.02 0.02 0.01 0.01 0.02 0.01 0.01 0.00 0.00 0.00 0.00 0.01 0.01 0.01 0.00 0.00 0.00 0.00 0.00 0.00 0.00 0.00 0.00 0.00 0.00 0.00 0.00 0.00 0.00
0.01 0.00 0.00 0.00 0.00 0.00 0.00 0.00 0.00 0.00 0.00 0.00 0.00 0.00 0.00 0.00 0.01 0.01 0.01 0.00 0.00 0.00 0.00 0.00 0.00 0.00 0.00 0.00 0.00 0.00 0.00 0.00 0.00 0.00 0.00 0.00 0.00 0.00 0.00 0.00 0.00 0.00 0.00 0.00
0.00 0.00 0.00 0.00 0.00 0.00 0.00 0.00 0.00 0.00 0.00 0.00 0.00 0.00 0.00 0.00 0.00 0.01 0.01 0.00 0.00 0.00 0.00 0.00 0.00 0.00 0.00 0.00 0.00 0.00 0.00 0.00 0.00 0.00 0.00 0.00 0.00 0.00 0.00 0.00 0.00 0.00 0.00 0.00
MSLP
1011.27 1011.49 1011.61 1011.66 1011.65 1011.61 1011.56 1011.49 1011.39 1011.24 1011.01 1010.69 1010.26 1009.75 1009.17 1008.57 1007.99 1007.46 1007.01 1006.64 1006.34 1006.09 1005.86 1005.63 1005.41 1005.19 1005.01 1004.90 1004.91 1005.06 1005.38 1005.85 1006.46 1007.16 1007.90 1008.63 1009.32 1009.94 1010.51 1011.03 1011.54 1012.06 1012.64 1013.28
1011.34 1011.50 1011.59 1011.64 1011.68 1011.73 1011.77 1011.80 1011.76 1011.61 1011.33 1010.89 1010.30 1009.58 1008.81 1008.03 1007.32 1006.72 1006.26 1005.93 1005.71 1005.55 1005.41 1005.24 1005.03 1004.79 1004.55 1004.37 1004.30 1004.40 1004.70 1005.20 1005.87 1006.66 1007.50 1008.35 1009.14 1009.84 1010.47 1011.02 1011.55 1012.10 1012.69 1013.34
1011.36 1011.46 1011.54 1011.62 1011.74 1011.90 1012.07 1012.20 1012.23 1012.09 1011.74 1011.16 1010.37 1009.42 1008.40 1007.42 1006.55 1005.87 1005.39 1005.11 1004.98 1004.93 1004.89 1004.80 1004.62 1004.36 1004.08 1003.83 1003.70 1003.74 1004.02 1004.54 1005.27 1006.15 1007.11 1008.07 1008.98 1009.79 1010.48 1011.09 1011.65 1012.20 1012.80 1013.45
1011.32 1011.38 1011.45 1011.58 1011.81 1012.10 1012.41 1012.67 1012.78 1012.64 1012.21 1011.48 1010.47 1009.27 1008.00 1006.79 1005.75 1004.97 1004.47 1004.24 1004.20 1004.26 1004.33 1004.33 1004.20 1003.95 1003.63 1003.32 1003.12 1003.11 1003.37 1003.89 1004.67 1005.63 1006.70 1007.79 1008.81 1009.72 1010.50 1011.17 1011.76 1012.33 1012.92 1013.56
1011.23 1011.25 1011.34 1011.54 1011.87 1012.30 1012.76 1013.14 1013.31 1013.18 1012.68 1011.80 1010.58 1009.15 1007.63 1006.21 1005.00 1004.12 1003.60 1003.40 1003.44 1003.62 1003.80 1003.88 1003.81 1003.57 1003.23 1002.88 1002.62 1002.55 1002.77 1003.29 1004.09 1005.12 1006.28 1007.47 1008.60 1009.62 1010.48 1011.21 1011.84 1012.42 1013.00 1013.63
1011.09 1011.09 1011.20 1011.46 1011.90 1012.46 1013.05 1013.53 1013.77 1013.65 1013.08 1012.07 1010.68 1009.04 1007.32 1005.71 1004.37 1003.40 1002.85 1002.68 1002.80 1003.07 1003.35 1003.51 1003.49 1003.28 1002.93 1002.54 1002.22 1002.10 1002.27 1002.77 1003.58 1004.64 1005.86 1007.13 1008.35 1009.45 1010.39 1011.18 1011.84 1012.44 1013.03 1013.64
1010.91 1010.92 1011.05 1011.37 1011.89 1012.54 1013.23 1013.80 1014.08 1013.96 1013.35 1012.25 1010.73 1008.95 1007.08 1005.34 1003.89 1002.86 1002.30 1002.15 1002.32 1002.66 1003.02 1003.25 1003.28 1003.10 1002.74 1002.32 1001.96 1001.79 1001.91 1002.37 1003.16 1004.23 1005.47 1006.79 1008.07 1009.23 1010.23 1011.07 1011.77 1012.39 1012.99 1013.59
1010.73 1010.74 1010.90 1011.26 1011.83 1012.54 1013.28 1013.89 1014.20 1014.07 1013.43 1012.29 1010.71 1008.85 1006.90 1005.09 1003.60 1002.54 1001.96 1001.83 1002.03 1002.42 1002.83 1003.11 1003.18 1003.02 1002.67 1002.24 1001.85 1001.64 1001.71 1002.13 1002.89 1003.93 1005.17 1006.49 1007.79 1008.98 1010.02 1010.90 1011.64 1012.29 1012.91 1013.52
1010.55 1010.58 1010.76 1011.14 1011.73 1012.45 1013.19 1013.80 1014.10 1013.96 1013.31 1012.16 1010.57 1008.71 1006.77 1004.96 1003.46 1002.41 1001.84 1001.71 1001.92 1002.32 1002.74 1003.05 1003.14 1003.01 1002.69 1002.27 1001.88 1001.66 1001.70 1002.08 1002.79 1003.78 1004.98 1006.27 1007.56 1008.76 1009.82 1010.72 1011.50 1012.18 1012.82 1013.46
1010.39 1010.46 1010.66 1011.04 1011.60 1012.28 1012.98 1013.53 1013.79 1013.63 1012.98 1011.85 1010.31 1008.51 1006.63 1004.89 1003.44 1002.42 1001.85 1001.71 1001.91 1002.29 1002.70 1003.01 1003.13 1003.03 1002.75 1002.38 1002.03 1001.83 1001.87 1002.23 1002.89 1003.83 1004.96 1006.20 1007.45 1008.62 1009.67 1010.59 1011.39 1012.11 1012.78 1013.45
1010.27 1010.39 1010.60 1010.96 1011.47 1012.06 1012.66 1013.11 1013.30 1013.09 1012.45 1011.36 1009.90 1008.21 1006.46 1004.82 1003.46 1002.48 1001.93 1001.77 1001.92 1002.26 1002.63 1002.93 1003.07 1003.02 1002.82 1002.54 1002.27 1002.13 1002.22 1002.58 1003.21 1004.10 1005.16 1006.32 1007.50 1008.62 1009.65 1010.56 1011.38 1012.12 1012.84 1013.54
1010.20 1010.37 1010.59 1010.91 1011.33 1011.81 1012.26 1012.58 1012.65 1012.38 1011.73 1010.70 1009.35 1007.80 1006.19 1004.69 1003.44 1002.53 1001.99 1001.80 1001.90 1002.18 1002.51 1002.79 1002.95 1002.97 1002.87 1002.71 1002.58 1002.55 1002.72 1003.11 1003.74 1004.58 1005.57 1006.65 1007.74 1008.80 1009.78 1010.67 1011.49 1012.27 1013.01 1013.75
1010.19 1010.40 1010.61 1010.88 1011.19 1011.51 1011.80 1011.95 1011.88 1011.53 1010.86 1009.88 1008.65 1007.25 1005.82 1004.48 1003.36 1002.52 1002.00 1001.79 1001.83 1002.04 1002.32 1002.58 1002.78 1002.89 1002.92 1002.92 1002.95 1003.07 1003.35 1003.82 1004.46 1005.27 1006.20 1007.19 1008.19 1009.17 1010.09 1010.95 1011.76 1012.54 1013.31 1014.08
1010.22 1010.45 1010.65 1010.84 1011.02 1011.18 1011.26 1011.23 1011.01 1010.57 1009.88 1008.95 1007.84 1006.61 1005.36 1004.20 1003.21 1002.47 1001.98 1001.76 1001.75 1001.89 1002.13 1002.39 1002.63 1002.84 1003.01 1003.19 1003.40 1003.70 1004.11 1004.66 1005.34 1006.13 1007.00 1007.91 1008.82 1009.71 1010.56 1011.38 1012.17 1012.95 1013.73 1014.50
1010.26 1010.49 1010.65 1010.75 1010.79 1010.77 1010.66 1010.44 1010.07 1009.53 1008.82 1007.96 1006.97 1005.91 1004.86 1003.89 1003.06 1002.43 1002.00 1001.78 1001.74 1001.84 1002.05 1002.31 1002.60 1002.90 1003.22 1003.57 1003.96 1004.43 1004.98 1005.62 1006.34 1007.12 1007.93 1008.76 1009.58 1010.38 1011.17 1011.93 1012.70 1013.46 1014.23 1015.00
1010.28 1010.48 1010.58 1010.57 1010.47 1010.27 1009.98 1009.58 1009.08 1008.46 1007.75 1006.95 1006.10 1005.24 1004.40 1003.63 1002.99 1002.49 1002.14 1001.95 1001.91 1002.00 1002.19 1002.46 1002.80 1003.19 1003.63 1004.12 1004.67 1005.28 1005.95 1006.66 1007.40 1008.16 1008.92 1009.68 1010.41 1011.14 1011.85 1012.57 1013.29 1014.03 1014.78 1015.53
1010.23 1010.37 1010.38 1010.26 1010.01 1009.66 1009.21 1008.67 1008.07 1007.41 1006.72 1006.02 1005.32 1004.66 1004.05 1003.51 1003.07 1002.73 1002.50 1002.38 1002.37 1002.46 1002.65 1002.93 1003.30 1003.75 1004.28 1004.87 1005.53 1006.24 1006.97 1007.73 1008.48 1009.21 1009.92 1010.61 1011.27 1011.91 1012.56 1013.23 1013.91 1014.61 1015.33 1016.04
1010.05 1010.11 1010.02 1009.78 1009.42 1008.94 1008.37 1007.74 1007.08 1006.43 1005.80 1005.23 1004.71 1004.27 1003.90 1003.60 1003.38 1003.22 1003.13 1003.11 1003.15 1003.27 1003.47 1003.76 1004.14 1004.61 1005.18 1005.82 1006.53 1007.27 1008.04 1008.79 1009.52 1010.21 1010.87 1011.48 1012.08 1012.66 1013.26 1013.87 1014.51 1015.18 1015.85 1016.52
1009.72 1009.67 1009.48 1009.15 1008.69 1008.13 1007.50 1006.83 1006.18 1005.58 1005.06 1004.63 1004.32 1004.10 1003.97 1003.92 1003.92 1003.96 1004.02 1004.11 1004.22 1004.38 1004.59 1004.88 1005.26 1005.73 1006.28 1006.92 1007.62 1008.35 1009.09 1009.81 1010.49 1011.13 1011.72 1012.28 1012.82 1013.36 1013.91 1014.48 1015.09 1015.71 1016.34 1016.95
1009.23 1009.06 1008.78 1008.38 1007.87 1007.27 1006.64 1006.00 1005.41 1004.91 1004.53 1004.28 1004.16 1004.17 1004.28 1004.45 1004.66 1004.88 1005.09 1005.28 1005.47 1005.67 1005.90 1006.18 1006.54 1006.97 1007.49 1008.08 1008.73 1009.41 1010.08 1010.74 1011.37 1011.95 1012.49 1013.00 1013.50 1014.00 1014.52 1015.06 1015.63 1016.20 1016.78 1017.33
1008.57 1008.31 1007.96 1007.52 1007.00 1006.43 1005.85 1005.30 1004.82 1004.46 1004.24 1004.17 1004.25 1004.46 1004.77 1005.13 1005.51 1005.88 1006.21 1006.51 1006.76 1007.00 1007.24 1007.52 1007.84 1008.23 1008.70 1009.22 1009.79 1010.40 1011.00 1011.59 1012.15 1012.68 1013.17 1013.65 1014.12 1014.60 1015.10 1015.61 1016.15 1016.68 1017.20 1017.68
1007.79 1007.46 1007.08 1006.64 1006.16 1005.67 1005.19 1004.77 1004.45 1004.25 1004.20 1004.31 1004.56 1004.92 1005.38 1005.88 1006.38 1006.85 1007.27 1007.63 1007.94 1008.21 1008.46 1008.73 1009.03 1009.38 1009.79 1010.25 1010.76 1011.29 1011.82 1012.35 1012.86 1013.34 1013.81 1014.27 1014.72 1015.19 1015.68 1016.17 1016.67 1017.15 1017.61 1018.02
1006.96 1006.59 1006.20 1005.81 1005.41 1005.04 1004.71 1004.46 1004.31 1004.29 1004.40 1004.65 1005.03 1005.51 1006.05 1006.62 1007.19 1007.71 1008.17 1008.57 1008.91 1009.20 1009.46 1009.73 1010.02 1010.35 1010.73 1011.14 1011.60 1012.07 1012.56 1013.04 1013.52 1013.98 1014.43 1014.88 1015.34 1015.80 1016.27 1016.74 1017.20 1017.64 1018.03 1018.36
1006.14 1005.76 1005.41 1005.09 1004.81 1004.59 1004.43 1004.36 1004.40 1004.54 1004.79 1005.16 1005.62 1006.16 1006.74 1007.33 1007.89 1008.41 1008.88 1009.28 1009.62 1009.93 1010.21 1010.49 1010.80 1011.13 1011.49 1011.90 1012.33 1012.78 1013.24 1013.71 1014.17 1014.62 1015.07 1015.52 1015.98 1016.44 1016.89 1017.33 1017.75 1018.13 1018.45 1018.70
1005.42 1005.05 1004.75 1004.54 1004.39 1004.33 1004.36 1004.47 1004.67 1004.96 1005.34 1005.79 1006.30 1006.85 1007.41 1007.97 1008.49 1008.98 1009.41 1009.80 1010.14 1010.46 1010.76 1011.07 1011.40 1011.76 1012.15 1012.56 1013.00 1013.45 1013.91 1014.37 1014.83 1015.28 1015.74 1016.19 1016.64 1017.09 1017.52 1017.93 1018.30 1018.61 1018.86 1019.04
1004.86 1004.52 1004.30 1004.18 1004.17 1004.27 1004.46 1004.73 1005.09 1005.50 1005.97 1006.47 1007.00 1007.54 1008.06 1008.56 1009.03 1009.46 1009.86 1010.22 1010.56 1010.89 1011.22 1011.57 1011.94 1012.34 1012.76 1013.20 1013.66 1014.12 1014.59 1015.06 1015.52 1015.97 1016.42 1016.87 1017.31 1017.73 1018.13 1018.50 1018.81 1019.07 1019.25 1019.36
Thickness
5566 5567 5571 5579 5584 5592 5597 5598 5602 5615 5627 5624 5625 5633 5643 5653 5658 5663 5667 5672 5676 5682 5690 5696 5700 5703 5705 5707 5707 5707 5705 5704 5700 5694 5689 5684 5681 5679 5677 5675 5672 5666 5660 5654
5555 5560 5574 5585 5589 5588 5588 5587 5591 5601 5613 5613 5617 5629 5641 5652 5660 5665 5667 5670 5674 5678 5682 5687 5692 5695 5697 5699 5701 5702 5701 5700 5699 5694 5689 5683 5676 5671 5668 5667 5663 5659 5653 5647
5555 5564 5575 5577 5577 5576 5577 5578 5583 5588 5595 5602 5605 5625 5647 5667 5669 5669 5669 5670 5672 5674 5676 5679 5683 5686 5689 5691 5693 5695 5696 5695 5693 5690 5682 5673 5665 5660 5655 5653 5651 5648 5644 5638
5551 5564 5566 5568 5570 5570 5569 5581 5581 5581 5577 5583 5595 5596 5639 5654 5660 5664 5664 5665 5666 5668 5670 5672 5675 5677 5681 5684 5686 5687 5688 5688 5686 5684 5677 5669 5663 5656 5651 5646 5642 5638 5634 5629
5552 5559 5559 5559 5566 5569 5569 5573 5571 5571 5568 5568 5582 5578 5626 5644 5647 5653 5657 5658 5659 5661 5662 5664 5667 5670 5673 5676 5677 5679 5680 5680 5679 5678 5673 5665 5657 5652 5644 5638 5633 5628 5624 5621
5555 5559 5560 5560 5565 5568 5568 5563 5562 5562 5559 5557 5580 5581 5614 5635 5645 5647 5649 5649 5649 5650 5652 5655 5657 5660 5662 5664 5666 5669 5671 5671 5670 5668 5664 5658 5651 5644 5637 5631 5625 5620 5615 5612
5545 5551 5556 5559 5557 5559 5558 5550 5548 5552 5551 5561 5586 5591 5613 5635 5640 5637 5635 5634 5634 5633 5633 5635 5638 5641 5644 5647 5651 5655 5659 5660 5660 5658 5654 5649 5644 5638 5633 5627 5621 5615 5609 5605
5538 5547 5554 5555 5554 5553 5550 5548 5543 5548 5560 5577 5591 5591 5615 5633 5634 5630 5626 5622 5619 5616 5616 5617 5619 5622 5625 5630 5635 5639 5644 5647 5648 5646 5642 5639 5635 5629 5624 5620 5616 5611 5606 5600
5544 5548 5558 5556 5553 5552 5546 5542 5547 5541 5542 5542 5565 5589 5609 5622 5619 5615 5610 5606 5601 5599 5600 5600 5602 5605 5608 5613 5619 5624 5630 5633 5634 5634 5631 5628 5624 5621 5616 5612 5607 5603 5598 5592
5549 5545 5550 5551 5548 5544 5547 5546 5536 5523 5514 5531 5561 5577 5589 5602 5599 5598 5594 5588 5586 5585 5583 5583 5585 5587 5591 5598 5605 5611 5617 5619 5621 5621 5619 5617 5614 5612 5608 5603 5599 5595 5590 5585
5545 5536 5542 5541 5538 5539 5536 5535 5533 5529 5530 5522 5535 5567 5600 5591 5587 5582 5579 5575 5572 5569 5567 5566 5568 5571 5576 5583 5591 5597 5603 5606 5607 5608 5607 5604 5602 5601 5598 5594 5590 5586 5581 5575
5542 5536 5533 5540 5547 5548 5542 5537 5529 5515 5520 5526 5525 5557 5589 5583 5578 5572 5566 5562 5559 5556 5553 5551 5553 5556 5560 5567 5575 5582 5589 5593 5594 5595 5593 5591 5590 5589 5587 5582 5578 5575 5570 5566
5539 5529 5520 5534 5538 5543 5541 5540 5536 5527 5520 5520 5521 5551 5579 5574 5567 5560 5552 5548 5545 5542 5540 5538 5539 5543 5548 5554 5561 5568 5575 5579 5581 5581 5579 5577 5577 5578 5575 5571 5568 5564 5560 5555
5539 5530 5523 5535 5539 5539 5535 5536 5535 5524 5518 5522 5532 5550 5564 5559 5555 5550 5543 5537 5532 5529 5527 5527 5528 5532 5537 5543 5550 5556 5560 5565 5567 5566 5565 5565 5566 5567 5564 5561 5557 5553 5549 5544
5532 5526 5530 5534 5540 5540 5540 5540 5539 5530 5525 5524 5539 5544 5553 5552 5548 5544 5537 5533 5526 5521 5519 5519 5520 5522 5527 5532 5537 5541 5545 5549 5552 5553 5553 5555 5556 5556 5553 5550 5546 5542 5537 5531
5527 5525 5530 5533 5543 5546 5546 5550 5549 5546 5544 5540 5541 5547 5554 5552 5548 5541 5533 5528 5521 5514 5513 5513 5514 5514 5518 5522 5525 5528 5532 5536 5540 5542 5544 5546 5547 5545 5542 5539 5534 5530 5524 5518
5525 5524 5524 5532 5548 5548 5550 5560 5557 5553 5553 5548 5548 5552 5554 5551 5545 5533 5527 5523 5517 5513 5511 5510 5508 5509 5511 5514 5518 5520 5524 5528 5532 5534 5536 5537 5537 5535 5531 5528 5523 5518 5511 5505
5527 5523 5521 5528 5537 5542 5562 5568 5563 5557 5558 5557 5555 5555 5554 5550 5541 5529 5523 5520 5516 5514 5512 5508 5506 5505 5506 5510 5513 5516 5519 5521 5524 5526 5527 5527 5527 5525 5521 5517 5512 5505 5499 5493
5529 5524 5521 5525 5533 5547 5567 5568 5564 5559 5559 5563 5558 5558 5557 5555 5547 5533 5521 5518 5517 5514 5511 5507 5505 5504 5505 5507 5510 5512 5512 5513 5515 5517 5518 5517 5517 5515 5510 5505 5499 5493 5487 5481
5528 5523 5518 5525 5530 5542 5565 5570 5570 5561 5560 5566 5561 5558 5556 5556 5551 5532 5519 5516 5513 5510 5508 5505 5504 5503 5503 5504 5506 5506 5506 5507 5508 5508 5509 5508 5506 5503 5498 5493 5487 5482 5477 5471
5523 5520 5520 5524 5530 5546 5569 5571 5568 5559 5563 5567 5564 5559 5554 5546 5533 5522 5517 5514 5510 5507 5504 5502 5501 5500 5499 5500 5500 5500 5500 5500 5500 5500 5499 5498 5495 5492 5487 5482 5477 5472 5467 5461
5533 5531 5531 5532 5533 5545 5574 5571 5566 5565 5568 5566 5563 5557 5548 5536 5526 5520 5517 5514 5511 5507 5504 5502 5500 5497 5495 5495 5495 5494 5493 5493 5493 5493 5491 5488 5485 5482 5476 5471 5466 5461 5455 5449
5546 5547 5548 5547 5552 5568 5575 5572 5571 5567 5564 5561 5557 5553 5545 5536 5526 5519 5515 5513 5511 5510 5506 5504 5502 5500 5497 5495 5494 5494 5491 5490 5489 5486 5482 5478 5475 5470 5465 5460 5455 5449 5443 5437
5553 5558 5554 5554 5563 5570 5573 5570 5565 5560 5556 5553 5553 5551 5546 5535 5525 5519 5514 5510 5508 5507 5506 5504 5501 5498 5494 5491 5490 5489 5487 5485 5482 5478 5473 5468 5464 5459 5454 5449 5443 5437 5431 5424
5550 5552 5551 5553 5562 5569 5566 5561 5559 5555 5552 5550 5548 5546 5540 5531 5524 5518 5512 5508 5506 5504 5501 5499 5495 5492 5488 5486 5484 5482 5480 5478 5474 5468 5463 5458 5453 5448 5442 5437 5431 5426 5419 5413
5548 5550 5550 5555 5562 5562 5560 5557 5555 5551 5546 5543 5540 5536 5532 5527 5520 5514 5509 5505 5502 5499 5496 5492 5489 5486 5483 5480 5477 5475 5472 5470 5465 5458 5452 5447 5442 5437 5431 5426 5421 5416 5411 5405